sat.trackr.live / text

‹ back to catalog

STARLINK-5204

NORAD 54101 · 2022-136BC

PAYLOAD ACTIVE UNKNOWN

§ Identity

Operator
Country
US
Launch date
2022-10-20
Launch site
AFETR
Launch vehicle
Mass (kg)
RCS (m²)

Purposes: comms

External: N2YO · Heavens-Above · Gunter

§ Orbital elements

Epoch: 2026-05-24T21:39:56.424096Z

Period
95.44 min
Inclination
53.2126°
Eccentricity
0.0001073
Mean motion
15.08835266 rev/d
Perigee alt
539.0 km
Apogee alt
540.5 km
Semi-major
6,917.9 km
B*
4.7189e-5
RAAN
336.7487°
Arg perigee
121.8181°
Mean anomaly
238.2915°
Rev number
19,870

§ Raw data

STARLINK-52041 54101U 22136BC  26144.90273639  .00000463  00000+0  47189-4 0  99962 54101  53.2126 336.7487 0001073 121.8181 238.2915 15.08835266198702

JSON: /api/v1/satellites/54101 · /tle

For live sub-satellite position, see the globe view (requires WebGL).

§ Visibility from observer

Set your observer location to see the next 7 days of passes ≥ 10°. The values pass through the URL so the page stays shareable.

No JS? Fill the form by hand. The geolocation button needs JavaScript.